Flag for U.S.A. Weather past 2 weeks in Ann Arbor, Michigan, U.S.A.

Now
63 °F

Thunderstorms. Fog.


Feels Like: 63 °F
Forecast: 63 / 79 °F
Wind: 10 mph from South

Location: Ann Arbor Municipal Airport

Current Time: Aug 3, 2015 at 1:24:33 AM

Latest Report: Aug 3, 2015 at 12:53 AM


Visibility: 5 mi

Pressure: 29.76 "Hg

Humidity: 93%

Dew point: 61 °F

Location of Ann ArborLocation

Historic Weather in Ann Arbor — Graph

°F

Ann Arbor temperature yesterday

Maximum temperature yesterday: 90 °F (at 2:53 PM)
Minimum temperature yesterday: 56 °F (at 5:53 AM)
Average temperature yesterday: 74 °F

Past Weeks' High & Low Weather Summary

 TemperatureHumidityPressure
High90 °F (Aug 2, 2:53 PM)100% (Jul 23, 2:59 AM)30.06 "Hg (Jul 23, 2:59 AM)
Low52 °F (Jul 22, 3:53 AM)33% (Jul 31, 5:53 PM)29.65 "Hg (Aug 2, 9:53 PM)
Average73 °F69%29.91 "Hg
* Reported Jul 18 11:53 PM — Aug 2 11:53 PM, Ann Arbor, Weather by CustomWeather, © 2015

Note: Actual official high and low records may vary slightly from our data, if they occured in-between our weather recording intervals... More about our weather records

Advertising

Ann Arbor weather history for previous 24 hours

 ConditionsComfort  
Time TempWeatherWind HumidityBarometerVisibility
11:53 PM
Sun, Aug 2
63 °FStrong thunderstorms. Fog.7 mph93%29.79 "Hg1 mi
11:02 PM73 °FOvercast.28 mph62%29.76 "Hg10 mi
10:53 PM82 °FPassing clouds.14 mph56%29.70 "Hg10 mi
9:53 PM82 °FClear.15 mph55%29.65 "Hg10 mi
8:53 PM83 °FSunny.14 mph51%29.66 "Hg10 mi
7:53 PM85 °FSunny.16 mph48%29.68 "Hg10 mi
6:53 PM86 °FSunny.16 mph46%29.69 "Hg10 mi
5:53 PM88 °FSunny.21 mph43%29.71 "Hg10 mi
4:53 PM89 °FPassing clouds.16 mph43%29.73 "Hg10 mi
3:53 PM89 °FSunny.21 mph39%29.74 "Hg10 mi
2:53 PM90 °FSunny.15 mph39%29.76 "Hg10 mi
1:53 PM88 °FSunny.20 mph46%29.78 "Hg10 mi
12:53 PM85 °FSunny.18 mph55%29.81 "Hg10 mi
11:53 AM83 °FSunny.10 mph63%29.83 "Hg10 mi
10:53 AM79 °FSunny.12 mph69%29.85 "Hg10 mi
9:53 AM74 °FSunny.8 mph76%29.86 "Hg10 mi
8:53 AM70 °FSunny.6 mph81%29.87 "Hg10 mi
7:53 AM65 °FSunny.No wind87%29.87 "Hg10 mi
6:53 AM56 °FFog.N/A97%29.87 "Hg6 mi
5:53 AM56 °FFog.No wind97%29.87 "Hg6 mi
4:53 AM57 °FClear.No wind96%29.87 "Hg10 mi
3:53 AM59 °FClear.No wind90%29.88 "Hg10 mi
2:53 AM58 °FClear.No wind93%29.88 "Hg10 mi
1:53 AM60 °FPassing clouds.No wind86%29.88 "Hg10 mi
Weather by CustomWeather, © 2015

See weather overviewHow to use our weather pages